Regional Weather Roundup
Issued by NWS

Home | Current Version | Previous Version | Text Only | Print | Product List | Glossary On
Versions: 1 2 3 4 5 6 7 8 9 10 11 12 13 14 15 16 17 18 19 20 21 22 23 24 25 26 27 28 29 30 31 32 33 34 35 36 37 38 39 40 41 42 43 44 45 46 47 48 49 50
000
ASUS43 KBIS 301610
RWRND

NORTH DAKOTA REGIONAL WEATHER ROUNDUP
NATIONAL WEATHER SERVICE BISMARCK ND
1100 AM CDT MON MAY 30 2016

NOTE: "FAIR" INDICATES FEW OR NO CLOUDS BELOW 12,000 FEET WITH NO
SIGNIFICANT WEATHER AND/OR OBSTRUCTIONS TO VISIBILITY.


NDZ001>003-009>011-017-301700-
NORTHWEST NORTH DAKOTA

CITY           SKY/WX    TMP DP  RH WIND       PRES   REMARKS
WILLISTON      CLOUDY    59  46  62 SW6       29.93S
MINOT          CLOUDY    73  54  51 NE5       29.88S
MINOT AFB      CLOUDY    69  52  55 E6        29.87F
$$

NDZ018>021-031>035-040>046-301700-
SOUTHWEST NORTH DAKOTA

CITY           SKY/WX    TMP DP  RH WIND       PRES   REMARKS
BISMARCK       SUNNY     72  57  59 SE7       29.88F
DICKINSON      CLOUDY    57  49  74 NE16      29.86F
GARRISON         N/A     65  51  60 CALM      29.89F
HETTINGER ARPT PTSUNNY   66  55  67 SW14      29.92R
$$

NDZ004>008-012>016-024-026-027-054-301700-
NORTHEAST NORTH DAKOTA

CITY           SKY/WX    TMP DP  RH WIND       PRES   REMARKS
GRAND FORKS    PTSUNNY   70  54  56 SE7       29.90F
GRND FRKS AFB  MOSUNNY   72  54  52 S7        29.90S
DEVILS LAKE    SUNNY     72  55  55 SW6       29.90F
$$

NDZ022-023-025-028>030-036>039-047>053-301700-
SOUTHEAST NORTH DAKOTA

CITY           SKY/WX    TMP DP  RH WIND       PRES   REMARKS
FARGO          SUNNY     78  53  41 S8        29.91F
JAMESTOWN      SUNNY     76  56  49 S7        29.89F
$$





USA.gov is the U.S. government's official web portal to all federal, state and local government web resources and services.